| time (UTC) | temp C | wind direction | speed KPH | gust KPH | rain 1hr cm | rain 24hr cm | rain mn cm | humidity % | barometer mb |
| 20260504192013 | -17 | 0.0 | 0.0 | 0.00 | 0.23 | 0.23 | 1161.6 | ||
| 20260504191510 | -17 | 0.0 | 0.0 | 0.00 | 0.23 | 0.23 | 1162.4 | ||
| 20260504191006 | -17 | 0.0 | 0.0 | 0.13 | 0.23 | 0.23 | 1162.9 | ||
| 20260504190502 | -17 | 0.0 | 0.0 | 0.18 | 0.23 | 0.23 | 1162.8 | ||
| 20260504185958 | -17 | 0.0 | 0.0 | 0.23 | 0.20 | 0.20 | 1163.3 | ||
| 20260504185455 | -17 | 0.0 | 0.0 | 0.18 | 0.18 | 0.18 | 1163.0 | ||
| 20260504184952 | -17 | 0.0 | 0.0 | 0.13 | 0.18 | 0.18 | 1163.0 | ||
| 20260504184447 | -17 | 0.0 | 0.0 | 0.30 | 0.15 | 0.15 | 1162.8 | ||
| 20260504183943 | -17 | 0.0 | 0.0 | 0.79 | 0.15 | 0.15 | 1162.8 | ||
| 20260504183440 | -17 | 0.0 | 0.0 | 0.61 | 0.10 | 0.10 | 1163.1 | ||
| 20260504182938 | -17 | 0.0 | 0.0 | 0.13 | 0.03 | 0.03 | 1163.8 | ||
| 20260504182435 | -17 | 0.0 | 0.0 | 0.05 | 0.00 | 0.00 | 1163.8 | ||
| 20260504181932 | -17 | 0.0 | 0.0 | 0.00 | 0.00 | 0.00 | 1163.9 | ||
| 20260504181429 | -17 | 0.0 | 0.0 | 0.00 | 0.00 | 0.00 | 1163.9 | ||
| 20260504180928 | -17 | 0.0 | 0.0 | 0.00 | 0.00 | 0.00 | 1164.1 | ||
| 20260504180426 | -17 | 0.0 | 0.0 | 0.00 | 0.00 | 0.00 | 1163.4 | ||
| 20260504175924 | -17 | 0.0 | 0.0 | 0.00 | 0.00 | 0.00 | 1163.4 | ||
| 20260504175421 | -17 | 0.0 | 0.0 | 0.00 | 0.00 | 0.00 | 1163.6 | ||
| 20260504174919 | -17 | 0.0 | 0.0 | 0.00 | 0.00 | 0.00 | 1163.4 | ||
| 20260504174416 | -17 | 0.0 | 0.0 | 0.00 | 0.00 | 0.00 | 1163.4 | ||
| 20260504173913 | -17 | 0.0 | 0.0 | 0.00 | 0.00 | 0.00 | 1163.4 | ||
| 20260504173409 | -17 | 0.0 | 0.0 | 0.00 | 0.00 | 0.00 | 1163.7 | ||
| 20260504172907 | -17 | 0.0 | 0.0 | 0.00 | 0.00 | 0.00 | 1163.8 | ||
| 20260504172403 | -17 | 0.0 | 0.0 | 0.00 | 0.00 | 0.00 | 1163.7 | ||
| 20260504171859 | -17 | 0.0 | 0.0 | 0.00 | 0.00 | 0.00 | 1163.4 | ||
| 20260504171357 | -17 | 0.0 | 0.0 | 0.00 | 0.00 | 0.00 | 1163.1 | ||
| 20260504170854 | -17 | 0.0 | 0.0 | 0.00 | 0.00 | 0.00 | 1163.4 | ||
| 20260504170350 | -17 | 0.0 | 0.0 | 0.00 | 0.00 | 0.00 | 1163.6 | ||
| 20260504160309 | -17 | 0.0 | 0.0 | 0.00 | 0.00 | 0.00 | 1165.3 | ||
| 20260504150734 | -17 | 0.0 | 0.0 | 0.00 | 0.00 | 0.00 | 1165.6 | ||
| 20260504150230 | -17 | 0.0 | 0.0 | 0.00 | 0.00 | 0.00 | 1166.0 | ||
| 20260504141200 | -17 | 0.0 | 0.0 | 0.00 | 0.00 | 0.00 | 1165.3 | ||
| 20260504140656 | -17 | 0.0 | 0.0 | 0.00 | 0.00 | 0.00 | 1165.5 | ||
| 20260504140152 | -17 | 0.0 | 0.0 | 0.00 | 0.00 | 0.00 | 1165.5 | ||
| 20260504130620 | -17 | 0.0 | 0.0 | 0.00 | 0.00 | 0.00 | 1166.1 | ||
| 20260504130117 | -17 | 0.0 | 0.0 | 0.00 | 0.00 | 0.00 | 1166.1 | ||
| 20260504110509 | -17 | 0.0 | 0.0 | 0.00 | 0.00 | 0.00 | 1166.4 | ||
| 20260504100430 | -17 | 0.0 | 0.0 | 0.00 | 0.00 | 0.00 | 1166.2 | ||
| 20260504081823 | -17 | 0.0 | 0.0 | 0.00 | 0.00 | 0.00 | 1166.4 | ||
| 20260504081320 | -17 | 0.0 | 0.0 | 0.00 | 0.00 | 0.00 | 1166.4 | ||
| 20260504080816 | -17 | 0.0 | 0.0 | 0.00 | 0.00 | 0.00 | 1166.3 | ||
| 20260504080314 | -17 | 0.0 | 0.0 | 0.00 | 0.00 | 0.00 | 1166.2 | ||
| 20260504070241 | -17 | 0.0 | 0.0 | 0.00 | 0.00 | 0.00 | 1166.5 | ||
| 20260504060201 | -17 | 0.0 | 0.0 | 0.00 | 0.00 | 0.00 | 1166.4 | ||
| 20260504050629 | -17 | 0.0 | 0.0 | 0.00 | 0.00 | 0.00 | 1166.1 | ||
| 20260504050126 | -17 | 0.0 | 0.0 | 0.00 | 0.00 | 0.00 | 1165.7 | ||
| 20260504045623 | -17 | 0.0 | 0.0 | 0.00 | 0.00 | 0.00 | 1166.0 | ||
| 20260504045118 | -17 | 0.0 | 0.0 | 0.00 | 0.00 | 0.00 | 1165.7 | ||
| 20260504044616 | -17 | 0.0 | 0.0 | 0.00 | 0.00 | 0.00 | 1165.8 | ||
| 20260504044113 | -17 | 0.0 | 0.0 | 0.00 | 0.00 | 0.00 | 1166.1 | ||
| 20260504043610 | -17 | 0.0 | 0.0 | 0.00 | 0.00 | 0.00 | 1166.3 | ||
| 20260504043107 | -17 | 0.0 | 0.0 | 0.00 | 0.00 | 0.00 | 1166.6 | ||
| 20260504042604 | -17 | 0.0 | 0.0 | 0.00 | 0.00 | 0.00 | 1166.8 | ||
| 20260504042101 | -17 | 0.0 | 0.0 | 0.00 | 0.00 | 0.00 | 1166.9 | ||
| 20260504041556 | -17 | 0.0 | 0.0 | 0.00 | 0.00 | 0.00 | 1166.9 | ||
| 20260504041053 | -17 | 0.0 | 0.0 | 0.00 | 0.00 | 0.00 | 1166.9 | ||
| 20260504040551 | -17 | 0.0 | 0.0 | 0.00 | 0.00 | 0.00 | 1166.3 | ||
| 20260504040047 | -17 | 0.0 | 0.0 | 0.00 | 0.00 | 0.00 | 1167.4 | ||
| 20260504035544 | -17 | 0.0 | 0.0 | 0.00 | 0.00 | 0.00 | 1167.8 | ||
| 20260504035040 | -17 | 0.0 | 0.0 | 0.00 | 0.00 | 0.00 | 1167.6 | ||
| 20260504034538 | -17 | 0.0 | 0.0 | 0.00 | 0.00 | 0.00 | 1167.4 | ||
| 20260504034035 | -17 | 0.0 | 0.0 | 0.00 | 0.00 | 0.00 | 1167.8 | ||
| 20260504033533 | -17 | 0.0 | 0.0 | 0.00 | 0.00 | 0.00 | 1167.7 | ||
| 20260504033030 | -17 | 0.0 | 0.0 | 0.00 | 0.00 | 0.00 | 1167.8 | ||
| 20260504032527 | -17 | 0.0 | 0.0 | 0.00 | 0.00 | 0.00 | 1167.7 | ||
| 20260504032024 | -17 | 0.0 | 0.0 | 0.00 | 0.00 | 0.00 | 1167.8 | ||
| 20260504031521 | -17 | 0.0 | 0.0 | 0.00 | 0.00 | 0.00 | 1167.9 | ||
| 20260504031017 | -17 | 0.0 | 0.0 | 0.00 | 0.00 | 0.00 | 1167.7 | ||
| 20260504030514 | -17 | 0.0 | 0.0 | 0.00 | 0.00 | 0.00 | 1167.6 | ||
| 20260504030010 | -17 | 0.0 | 0.0 | 0.00 | 0.00 | 0.00 | 1167.4 | ||
| 20260504025507 | -17 | 0.0 | 0.0 | 0.00 | 0.00 | 0.00 | 1167.6 | ||
| 20260504025004 | -17 | 0.0 | 0.0 | 0.00 | 0.00 | 0.00 | 1167.4 | ||
| 20260504024502 | -17 | 0.0 | 0.0 | 0.00 | 0.00 | 0.00 | 1167.6 | ||
| 20260504023959 | -17 | 0.0 | 0.0 | 0.00 | 0.00 | 0.00 | 1167.4 | ||
| 20260504023455 | -17 | 0.0 | 0.0 | 0.00 | 0.00 | 0.00 | 1167.3 | ||
| 20260504022950 | -17 | 0.0 | 0.0 | 0.00 | 0.00 | 0.00 | 1167.2 | ||
| 20260504022447 | -17 | 0.0 | 0.0 | 0.00 | 0.00 | 0.00 | 1167.4 | ||
| 20260504021943 | -17 | 0.0 | 0.0 | 0.00 | 0.00 | 0.00 | 1167.1 | ||
| 20260504021441 | -17 | 0.0 | 0.0 | 0.00 | 0.00 | 0.00 | 1167.2 | ||
| 20260504020938 | -17 | 0.0 | 0.0 | 0.00 | 0.00 | 0.00 | 1167.0 | ||
| 20260504020434 | -17 | 0.0 | 0.0 | 0.00 | 0.00 | 0.00 | 1167.1 | ||
| 20260504015931 | -17 | 0.0 | 0.0 | 0.00 | 0.00 | 0.00 | 1167.1 | ||
| 20260504015427 | -17 | 0.0 | 0.0 | 0.00 | 0.00 | 0.00 | 1167.2 | ||
| 20260504014923 | -17 | 0.0 | 0.0 | 0.00 | 0.00 | 0.00 | 1167.0 | ||
| 20260504014419 | -17 | 0.0 | 0.0 | 0.00 | 0.00 | 0.00 | 1166.8 | ||
| 20260504013916 | -17 | 0.0 | 0.0 | 0.00 | 0.00 | 0.00 | 1167.0 | ||
| 20260504013415 | -17 | 0.0 | 0.0 | 0.00 | 0.00 | 0.00 | 1167.0 | ||
| 20260504012911 | -17 | 0.0 | 0.0 | 0.00 | 0.00 | 0.00 | 1167.0 | ||
| 20260504012409 | -17 | 0.0 | 0.0 | 0.00 | 0.00 | 0.00 | 1166.9 | ||
| 20260504011906 | -17 | 0.0 | 0.0 | 0.00 | 0.00 | 0.00 | 1166.8 | ||
| 20260504011403 | -17 | 0.0 | 0.0 | 0.00 | 0.00 | 0.00 | 1166.8 | ||
| 20260504010858 | -17 | 0.0 | 0.0 | 0.00 | 0.00 | 0.00 | 1167.0 | ||
| 20260504010354 | -17 | 0.0 | 0.0 | 0.00 | 0.00 | 0.00 | 1167.1 | ||
| 20260504005851 | -17 | 0.0 | 0.0 | 0.00 | 0.00 | 0.00 | 1166.9 | ||
| 20260504005348 | -17 | 0.0 | 0.0 | 0.00 | 0.00 | 0.00 | 1167.0 | ||
| 20260504004845 | -17 | 0.0 | 0.0 | 0.00 | 0.00 | 0.00 | 1166.6 | ||
| 20260504004343 | -17 | 0.0 | 0.0 | 0.00 | 0.00 | 0.00 | 1166.8 | ||
| 20260504003839 | -17 | 0.0 | 0.0 | 0.00 | 0.00 | 0.00 | 1166.8 | ||
| 20260504003336 | -17 | 0.0 | 0.0 | 0.00 | 0.00 | 0.00 | 1166.9 | ||
| 20260504002833 | -17 | 0.0 | 0.0 | 0.00 | 0.00 | 0.00 | 1166.9 | ||
| 20260504002329 | -17 | 0.0 | 0.0 | 0.00 | 0.00 | 0.00 | 1166.9 | ||
| 20260504001827 | -17 | 0.0 | 0.0 | 0.00 | 0.00 | 0.00 | 1167.0 | ||
| 20260504001324 | -17 | 0.0 | 0.0 | 0.00 | 0.00 | 0.00 | 1166.9 | ||
| 20260504000821 | -17 | 0.0 | 0.0 | 0.00 | 0.00 | 0.00 | 1166.9 | ||
| 20260504000318 | -17 | 0.0 | 0.0 | 0.00 | 0.00 | 0.00 | 1166.9 | ||
| 20260503235816 | -17 | 0.0 | 0.0 | 0.00 | 0.00 | 0.00 | 1166.9 | ||
| 20260503235313 | -17 | 0.0 | 0.0 | 0.00 | 0.00 | 0.00 | 1167.0 | ||
| 20260503234811 | -17 | 0.0 | 0.0 | 0.00 | 0.00 | 0.00 | 1167.2 | ||
| 20260503234308 | -17 | 0.0 | 0.0 | 0.00 | 0.00 | 0.00 | 1167.1 | ||
| 20260503233806 | -17 | 0.0 | 0.0 | 0.00 | 0.00 | 0.00 | 1167.3 | ||
| 20260503233301 | -17 | 0.0 | 0.0 | 0.00 | 0.00 | 0.00 | 1167.2 | ||
| 20260503232759 | -17 | 0.0 | 0.0 | 0.00 | 0.00 | 0.00 | 1167.2 | ||
| 20260503232256 | -17 | 0.0 | 0.0 | 0.00 | 0.00 | 0.00 | 1167.4 | ||
| 20260503231754 | -17 | 0.0 | 0.0 | 0.00 | 0.00 | 0.00 | 1167.1 | ||
| 20260503231251 | -17 | 0.0 | 0.0 | 0.00 | 0.00 | 0.00 | 1167.2 | ||
| 20260503230746 | -17 | 0.0 | 0.0 | 0.00 | 0.00 | 0.00 | 1167.3 | ||
| 20260503230244 | -17 | 0.0 | 0.0 | 0.00 | 0.00 | 0.00 | 1167.3 | ||
| 20260503225741 | -17 | 0.0 | 0.0 | 0.00 | 0.00 | 0.00 | 1167.4 | ||
| 20260503225241 | -17 | 0.0 | 0.0 | 0.00 | 0.00 | 0.00 | 1167.6 | ||
| 20260503224738 | -17 | 0.0 | 0.0 | 0.00 | 0.00 | 0.00 | 1167.6 | ||
| 20260503224236 | -17 | 0.0 | 0.0 | 0.00 | 0.00 | 0.00 | 1167.7 | ||
| 20260503223734 | -17 | 0.0 | 0.0 | 0.00 | 0.00 | 0.00 | 1167.4 | ||
| 20260503223231 | -17 | 0.0 | 0.0 | 0.00 | 0.00 | 0.00 | 1167.4 | ||
| 20260503222727 | -17 | 0.0 | 0.0 | 0.00 | 0.00 | 0.00 | 1167.6 | ||
| 20260503222225 | -17 | 0.0 | 0.0 | 0.00 | 0.00 | 0.00 | 1167.7 | ||
| 20260503221723 | -17 | 0.0 | 0.0 | 0.00 | 0.00 | 0.00 | 1167.8 | ||
| 20260503221221 | -17 | 0.0 | 0.0 | 0.00 | 0.00 | 0.00 | 1167.8 | ||
| 20260503220717 | -17 | 0.0 | 0.0 | 0.00 | 0.00 | 0.00 | 1168.0 | ||
| 20260503220214 | -17 | 0.0 | 0.0 | 0.00 | 0.00 | 0.00 | 1168.0 | ||
| 20260503215710 | -17 | 0.0 | 0.0 | 0.00 | 0.00 | 0.00 | 1167.7 | ||
| 20260503215208 | -17 | 0.0 | 0.0 | 0.00 | 0.00 | 0.00 | 1167.9 | ||
| 20260503214706 | -17 | 0.0 | 0.0 | 0.00 | 0.00 | 0.00 | 1168.0 | ||
| 20260503214201 | -17 | 0.0 | 0.0 | 0.00 | 0.00 | 0.00 | 1167.9 | ||
| 20260503213655 | -17 | 0.0 | 0.0 | 0.00 | 0.00 | 0.00 | 1167.9 | ||
| 20260503213152 | -17 | 0.0 | 0.0 | 0.00 | 0.00 | 0.00 | 1168.1 | ||
| 20260503212649 | -17 | 0.0 | 0.0 | 0.00 | 0.00 | 0.00 | 1168.1 | ||
| 20260503212146 | -17 | 0.0 | 0.0 | 0.00 | 0.00 | 0.00 | 1168.1 | ||
| 20260503211644 | -17 | 0.0 | 0.0 | 0.00 | 0.00 | 0.00 | 1168.4 | ||
| 20260503211139 | -17 | 0.0 | 0.0 | 0.00 | 0.00 | 0.00 | 1168.4 | ||
| 20260503210636 | -17 | 0.0 | 0.0 | 0.00 | 0.00 | 0.00 | 1168.2 | ||
| 20260503210132 | -17 | 0.0 | 0.0 | 0.00 | 0.00 | 0.00 | 1168.5 | ||
| 20260503205628 | -17 | 0.0 | 0.0 | 0.00 | 0.00 | 0.00 | 1168.7 | ||
| 20260503205125 | -17 | 0.0 | 0.0 | 0.00 | 0.00 | 0.00 | 1168.6 | ||
| 20260503204621 | -17 | 0.0 | 0.0 | 0.00 | 0.00 | 0.00 | 1168.7 | ||
| 20260503204119 | -17 | 0.0 | 0.0 | 0.00 | 0.00 | 0.00 | 1168.9 | ||
| 20260503203616 | -17 | 0.0 | 0.0 | 0.00 | 0.00 | 0.00 | 1169.3 | ||
| 20260503203114 | -17 | 0.0 | 0.0 | 0.00 | 0.00 | 0.00 | 1169.0 | ||
| 20260503202611 | -17 | 0.0 | 0.0 | 0.00 | 0.00 | 0.00 | 1169.5 | ||
| 20260503202109 | -17 | 0.0 | 0.0 | 0.00 | 0.00 | 0.00 | 1169.5 | ||
| 20260503201607 | -17 | 0.0 | 0.0 | 0.00 | 0.00 | 0.00 | 1169.6 | ||
| 20260503201104 | -17 | 0.0 | 0.0 | 0.00 | 0.00 | 0.00 | 1169.7 | ||
| 20260503200600 | -17 | 0.0 | 0.0 | 0.00 | 0.00 | 0.00 | 1170.0 | ||
| 20260503200056 | -17 | 0.0 | 0.0 | 0.00 | 0.00 | 0.00 | 1170.0 | ||
| 20260503195554 | -17 | 0.0 | 0.0 | 0.00 | 0.00 | 0.00 | 1170.3 | ||
| 20260503195050 | -17 | 0.0 | 0.0 | 0.00 | 0.00 | 0.00 | 1170.3 | ||
| 20260503194547 | -17 | 0.0 | 0.0 | 0.00 | 0.00 | 0.00 | 1170.5 | ||
| 20260503194047 | -17 | 0.0 | 0.0 | 0.00 | 0.00 | 0.00 | 1170.6 | ||
| 20260503193544 | -17 | 0.0 | 0.0 | 0.00 | 0.00 | 0.00 | 1170.8 | ||
| 20260503193039 | -17 | 0.0 | 0.0 | 0.00 | 0.00 | 0.00 | 1171.0 | ||
| 20260503192536 | -17 | 0.0 | 0.0 | 0.00 | 0.00 | 0.00 | 1171.3 |